Somerville, NJ

1:04 PM EDT on March 28, 2017 (GMT -0400)
Somerset

Weather History for KSMQ - June, 2015

Change the Weather History Date:

Sunday, June 14, 2015

  Actual Average Record
Temperature  
Mean Temperature 75 °F -  
Max Temperature 89 °F 78 °F 96 °F (1956)
Min Temperature 63 °F 55 °F 43 °F (1933)
Cooling Degree Days 10    
Growing Degree Days 25 (Base 50)    
Moisture  
Dew Point 63 °F    
Average Humidity 74    
Maximum Humidity 93    
Minimum Humidity 43    
Precipitation  
Precipitation 0.56 in - - ()
Sea Level Pressure  
Sea Level Pressure 30.02 in    
Wind  
Wind Speed 3 mph (SSE)    
Max Wind Speed 9 mph    
Max Gust Speed -    
Visibility 8 miles    
Events Rain , Thunderstorm    
Averages and records for this station are not official NWS values.
T = Trace of Precipitation, MM = Missing Value Source: NWS Daily Summary

Daily Weather History Graph

Daily Weather History Graph

Search for Another Location

Airport or City:

Trip Planner

Search our weather history database for the weather conditions in past years. The results will help you decide how hot, cold, wet, or windy it might be!

Date:

Astronomy

Jun. 14, 2015 Rise Set
Actual Time 5:27 AM EDT 8:30 PM EDT
Civil Twilight 4:53 AM EDT 9:04 PM EDT
Nautical Twilight 4:11 AM EDT 9:46 PM EDT
Astronomical Twilight 3:21 AM EDT 10:36 PM EDT
Moon 4:07 AM EDT (6/14) 6:31 PM EDT (6/14)
Length of Visible Light 16h 10m
Length of Day
15h 03m
Waning Crescent, 4% of the Moon is Illuminated
Jun 14
Waning Crescent
Jun 16
New
Jun 24
First Quarter
Jul 1
Full
Jul 8
Last Quarter

Hourly Weather History & Observations

Time (EDT) Temp. Heat Index Dew Point Humidity Pressure Visibility Wind Dir Wind Speed Gust Speed Precip Events Conditions
12:53 AM 68.0 °F - 60.1 °F 76% 30.00 in 10.0 mi NW 3.5 mph - N/A   Overcast
1:53 AM 64.0 °F - 59.0 °F 84% 30.00 in 10.0 mi Calm Calm - N/A   Mostly Cloudy
2:53 AM 64.0 °F - 60.1 °F 87% 30.01 in 10.0 mi Calm Calm - N/A   Overcast
3:53 AM 63.0 °F - 59.0 °F 87% 30.00 in 10.0 mi NW 3.5 mph - N/A   Clear
4:53 AM 63.0 °F - 59.0 °F 87% 30.02 in 10.0 mi Calm Calm - N/A   Clear
5:53 AM 63.0 °F - 59.0 °F 87% 30.03 in 10.0 mi Calm Calm - N/A   Overcast
6:53 AM 63.0 °F - 59.0 °F 87% 30.04 in 10.0 mi Calm Calm - N/A   Clear
7:53 AM 71.1 °F - 60.1 °F 68% 30.05 in 10.0 mi Calm Calm - N/A   Clear
8:53 AM 75.9 °F - 64.0 °F 67% 30.06 in 10.0 mi Variable 3.5 mph - N/A   Clear
9:53 AM 80.1 °F 81.1 °F 61.0 °F 52% 30.05 in 10.0 mi Variable 5.8 mph - N/A   Mostly Cloudy
10:53 AM 82.0 °F 83.0 °F 62.1 °F 51% 30.04 in 10.0 mi Variable 3.5 mph - N/A   Clear
11:53 AM 82.9 °F 83.7 °F 62.1 °F 49% 30.03 in 10.0 mi Calm Calm - N/A   Clear
12:53 PM 84.9 °F 85.9 °F 63.0 °F 48% 30.02 in 10.0 mi Calm Calm - N/A   Clear
1:53 PM 87.1 °F 87.5 °F 62.1 °F 43% 30.01 in 10.0 mi ENE 3.5 mph - N/A   Clear
2:53 PM 86.0 °F 86.8 °F 63.0 °F 46% 30.00 in 10.0 mi Calm Calm - N/A   Mostly Cloudy
3:53 PM 84.9 °F 87.6 °F 66.9 °F 55% 29.99 in 10.0 mi Variable 3.5 mph - N/A   Mostly Cloudy
4:53 PM 84.2 °F 86.6 °F 66.2 °F 55% 29.98 in 10.0 mi Variable 5.8 mph - N/A   Overcast
5:53 PM 82.0 °F 83.1 °F 63.0 °F 52% 29.98 in 10.0 mi SSE 9.2 mph - N/A   Partly Cloudy
6:53 PM 81.0 °F 82.5 °F 64.0 °F 56% 29.97 in 10.0 mi SE 4.6 mph - N/A   Scattered Clouds
7:53 PM 79.0 °F - 61.0 °F 54% 29.98 in 10.0 mi SSE 6.9 mph - N/A   Partly Cloudy
8:53 PM 75.0 °F - 62.1 °F 64% 29.99 in 8.0 mi South 5.8 mph - 0.01 in Rain Light Rain
9:14 PM 70.0 °F - 66.0 °F 87% 30.02 in 3.0 mi Variable 3.5 mph - 0.06 in Rain , Thunderstorm Rain
9:22 PM 70.0 °F - 66.0 °F 87% 30.06 in 1.5 mi Variable 5.8 mph - 0.19 in Rain , Thunderstorm Heavy Rain
9:26 PM 69.1 °F - 66.0 °F 90% 30.05 in 0.8 mi Variable 5.8 mph - 0.36 in Rain , Thunderstorm Heavy Thunderstorms and Rain
9:33 PM 69.1 °F - 66.0 °F 90% 30.05 in 1.0 mi Variable 5.8 mph - 0.41 in Rain , Thunderstorm Heavy Thunderstorms and Rain
9:37 PM 69.1 °F - 66.0 °F 90% 30.05 in 2.0 mi South 5.8 mph - 0.43 in Rain , Thunderstorm Heavy Thunderstorms and Rain
9:53 PM 68.0 °F - 66.0 °F 93% 30.04 in 2.0 mi SSE 4.6 mph - 0.55 in Rain , Thunderstorm Heavy Thunderstorms and Rain
10:01 PM 69.1 °F - 66.9 °F 93% 30.04 in 2.5 mi Calm Calm - 0.03 in Rain , Thunderstorm Heavy Rain
10:14 PM 69.1 °F - 66.9 °F 93% 30.03 in 2.5 mi Variable 5.8 mph - 0.11 in Rain Heavy Rain
10:22 PM 69.1 °F - 66.9 °F 93% 30.03 in 4.0 mi Variable 3.5 mph - 0.13 in Rain Rain
10:49 PM 69.8 °F - 66.2 °F 88% 30.01 in 5.0 mi Calm Calm - 0.18 in Rain Light Rain
10:53 PM 69.8 °F - 66.2 °F 88% 30.01 in 6.0 mi Calm Calm - N/A Rain Light Rain
11:11 PM 69.1 °F - 66.9 °F 93% 30.01 in 9.0 mi Calm Calm - 0.00 in   Overcast
11:53 PM 69.1 °F - 66.9 °F 93% 30.01 in 9.0 mi SSE 3.5 mph - 0.00 in   Overcast